{"data":{"norad_id":67594,"epoch":"2026-05-25T02:47:20.330592Z","epoch_age_seconds":65739,"freshness":"FRESH","line1":"1 67594U 26018F   26145.11620753  .00021164  00000+0  65586-3 0  9997","line2":"2 67594  97.2836 210.1970 0000995  82.1176 278.0180 15.33454207 19040","mean_motion":15.33454207,"eccentricity":9.95e-5,"inclination_deg":97.2836,"raan_deg":210.197,"arg_perigee_deg":82.1176,"mean_anomaly_deg":278.018,"bstar":0.00065586,"rev_number":1904,"period_min":93.905640835351,"perigee_km":464.83483760915,"apogee_km":466.19672451258,"semimajor_km":6843.6527810609,"source":"CELESTRAK","updated_at":"2026-05-25T13:38:21.620076Z"}}